Milwaukee Timmerman, WI

7:54 AM CDT on April 29, 2017 (GMT -0500)
Timmerman

Weather History for KMWC - February, 2014

Change the Weather History Date:

Monday, February 3, 2014

  Actual Average Record
Temperature  
Mean Temperature 8 °F -  
Max Temperature 21 °F 29 °F 52 °F (1992)
Min Temperature -5 °F 15 °F -13 °F (1970)
Degree Days  
Heating Degree Days 57    
Moisture  
Dew Point -3 °F    
Average Humidity 66    
Maximum Humidity 85    
Minimum Humidity 39    
Precipitation  
Precipitation 0.00 in - - ()
Sea Level Pressure  
Sea Level Pressure 30.32 in    
Wind  
Wind Speed 3 mph (SW)    
Max Wind Speed 8 mph    
Max Gust Speed -    
Visibility 10 miles    
Events      
Averages and records for this station are not official NWS values.
T = Trace of Precipitation, MM = Missing Value Source: NWS Daily Summary

Daily Weather History Graph

Daily Weather History Graph

Search for Another Location

Airport or City:

Trip Planner

Search our weather history database for the weather conditions in past years. The results will help you decide how hot, cold, wet, or windy it might be!

Date:

Astronomy

Feb. 03, 2014 Rise Set
Actual Time 7:05 AM CST 5:07 PM CST
Civil Twilight 6:35 AM CST 5:37 PM CST
Nautical Twilight 6:01 AM CST 6:11 PM CST
Astronomical Twilight 5:28 AM CST 6:44 PM CST
Moon 8:59 AM CST (2/3) 10:06 PM CST (2/3)
Length of Visible Light 11h 02m
Length of Day
10h 02m
Waxing Crescent, 20% of the Moon is Illuminated
Feb 3
Waxing Crescent
Feb 6
First Quarter
Feb 14
Full
Feb 22
Last Quarter
Mar 1
New

Hourly Weather History & Observations

Time (CST) Temp. Windchill Dew Point Humidity Pressure Visibility Wind Dir Wind Speed Gust Speed Precip Events Conditions
12:15 AM -0.4 °F - -4.0 °F 85% 30.29 in 10.0 mi Calm Calm - N/A   Clear
12:35 AM 1.4 °F -6.2 °F -4.0 °F 78% 30.29 in 10.0 mi West 3.5 mph - N/A   Clear
12:55 AM 1.4 °F -6.2 °F -4.0 °F 78% 30.29 in 10.0 mi WSW 3.5 mph - N/A   Clear
1:15 AM 1.4 °F -6.2 °F -5.8 °F 72% 30.29 in 10.0 mi West 3.5 mph - N/A   Clear
1:35 AM -0.4 °F -10.4 °F -7.6 °F 72% 30.29 in 10.0 mi WNW 4.6 mph - N/A   Clear
1:55 AM 1.4 °F - -4.0 °F 78% 30.30 in 10.0 mi Calm Calm - N/A   Clear
2:15 AM 1.4 °F - -4.0 °F 78% 30.30 in 10.0 mi Calm Calm - N/A   Clear
2:35 AM -0.4 °F - -5.8 °F 78% 30.30 in 10.0 mi Calm Calm - N/A   Clear
2:55 AM -0.4 °F -8.3 °F -5.8 °F 78% 30.31 in 10.0 mi West 3.5 mph - N/A   Clear
3:15 AM -0.4 °F -8.3 °F -5.8 °F 78% 30.31 in 10.0 mi SSW 3.5 mph - N/A   Clear
3:35 AM -2.2 °F -10.4 °F -7.6 °F 78% 30.31 in 10.0 mi SSW 3.5 mph - N/A   Clear
3:55 AM -4.0 °F - -7.6 °F 85% 30.31 in 10.0 mi Calm Calm - N/A   Clear
4:15 AM -2.2 °F - -7.6 °F 78% 30.31 in 10.0 mi Calm Calm - N/A   Clear
4:35 AM -2.2 °F - -5.8 °F 85% 30.32 in 10.0 mi Calm Calm - N/A   Clear
4:55 AM -2.2 °F - -7.6 °F 78% 30.32 in 10.0 mi Calm Calm - N/A   Clear
5:15 AM -4.0 °F - -9.4 °F 78% 30.31 in 10.0 mi Calm Calm - N/A   Clear
5:35 AM -4.0 °F - -7.6 °F 85% 30.32 in 10.0 mi Calm Calm - N/A   Clear
5:55 AM -2.2 °F - -7.6 °F 78% 30.32 in 10.0 mi Calm Calm - N/A   Clear
6:15 AM -4.0 °F - -7.6 °F 85% 30.32 in 10.0 mi Calm Calm - N/A   Clear
6:35 AM -4.0 °F - -7.6 °F 85% 30.33 in 10.0 mi Calm Calm - N/A   Clear
6:45 AM -5.8 °F - -9.4 °F 84% 30.33 in 10.0 mi Calm Calm - N/A   Clear
7:45 AM -4.0 °F - -7.6 °F 85% 30.34 in 10.0 mi Calm Calm - N/A   Clear
8:45 AM 1.4 °F - -5.8 °F 72% 30.35 in 10.0 mi Calm Calm - N/A   Clear
9:45 AM 8.6 °F - -2.2 °F 62% 30.34 in 10.0 mi Calm Calm - N/A   Clear
10:45 AM 15.8 °F - -0.4 °F 49% 30.34 in 10.0 mi Calm Calm - N/A   Clear
11:45 AM 17.6 °F 10.7 °F -2.2 °F 42% 30.33 in 10.0 mi SSW 4.6 mph - N/A   Clear
12:45 PM 19.4 °F 12.8 °F -2.2 °F 39% 30.32 in 10.0 mi SW 4.6 mph - N/A   Clear
1:45 PM 19.4 °F 9.5 °F 1.4 °F 46% 30.31 in 10.0 mi SW 8.1 mph - N/A   Clear
2:45 PM 21.2 °F 14.9 °F -0.4 °F 39% 30.29 in 10.0 mi SW 4.6 mph - N/A   Clear
3:45 PM 19.4 °F 10.4 °F 1.4 °F 46% 30.31 in 10.0 mi SW 6.9 mph - N/A   Clear
4:45 PM 19.4 °F 10.4 °F 1.4 °F 46% 30.32 in 10.0 mi SSW 6.9 mph - N/A   Clear
5:45 PM 17.6 °F 9.3 °F 1.4 °F 49% 30.31 in 10.0 mi SW 5.8 mph - N/A   Clear
6:45 PM 15.8 °F 6.1 °F 1.4 °F 53% 30.33 in 10.0 mi SW 6.9 mph - N/A   Clear
7:45 PM 12.2 °F 4.3 °F -0.4 °F 57% 30.31 in 10.0 mi SW 4.6 mph - N/A   Clear
8:15 PM 12.2 °F 4.3 °F 1.4 °F 62% 30.32 in 10.0 mi SW 4.6 mph - N/A   Clear
8:35 PM 12.2 °F 2.9 °F -0.4 °F 57% 30.32 in 10.0 mi SW 5.8 mph - N/A   Clear
8:45 PM 12.2 °F 2.9 °F -0.4 °F 57% 30.32 in 10.0 mi SW 5.8 mph - N/A   Clear
8:55 PM 12.2 °F 2.9 °F 1.4 °F 62% 30.32 in 10.0 mi SSW 5.8 mph - N/A   Clear
9:15 PM 12.2 °F 0.7 °F 1.4 °F 62% 30.33 in 10.0 mi SW 8.1 mph - N/A   Clear
9:35 PM 12.2 °F 2.9 °F 1.4 °F 62% 30.33 in 10.0 mi WSW 5.8 mph - N/A   Clear
9:55 PM 12.2 °F 6.1 °F 1.4 °F 62% 30.33 in 10.0 mi SW 3.5 mph - N/A   Clear
10:15 PM 14.0 °F 2.9 °F -0.4 °F 53% 30.33 in 10.0 mi SW 8.1 mph - N/A   Clear
10:35 PM 14.0 °F 5.1 °F -0.4 °F 53% 30.33 in 10.0 mi WSW 5.8 mph - N/A   Clear
10:55 PM 12.2 °F 4.3 °F -0.4 °F 57% 30.33 in 10.0 mi SW 4.6 mph - N/A   Clear
11:15 PM 12.2 °F 6.1 °F -0.4 °F 57% 30.34 in 10.0 mi WSW 3.5 mph - N/A   Clear
11:35 PM 12.2 °F 1.7 °F -0.4 °F 57% 30.34 in 10.0 mi WSW 6.9 mph - N/A   Clear
11:55 PM 10.4 °F 0.8 °F -0.4 °F 62% 30.35 in 10.0 mi WSW 5.8 mph - N/A   Clear